Time,TemperatureF,DewpointF,PressureIn,WindDirection,WindDirectionDegrees,WindSpeedMPH,WindSpeedGustMPH,Humidity,HourlyPrecipIn,Conditions,Clouds,dailyrainin,SoftwareType,DateUTC
2013-02-10 00:05:00,-1.6,-6.0,30.37,NW,306,0.0,-999.0,81,-99.99,,,0.00,weatherlink.com 1.10,2013-02-10 05:05:00,
2013-02-10 00:20:00,-3.3,-8.0,30.37,NW,306,0.0,-999.0,79,-99.99,,,0.00,weatherlink.com 1.10,2013-02-10 05:20:00,
2013-02-10 00:35:00,-3.7,-9.0,30.37,NW,306,0.0,-999.0,79,-99.99,,,0.00,weatherlink.com 1.10,2013-02-10 05:35:00,
2013-02-10 00:50:00,-1.8,-6.0,30.38,NW,306,0.0,-999.0,81,-99.99,,,0.00,weatherlink.com 1.10,2013-02-10 05:50:00,
2013-02-10 01:05:00,-1.8,-7.0,30.38,NW,306,0.0,-999.0,79,-99.99,,,0.00,weatherlink.com 1.10,2013-02-10 06:05:00,
2013-02-10 01:20:00,-3.5,-9.0,30.38,NW,306,0.0,-999.0,77,-99.99,,,0.00,weatherlink.com 1.10,2013-02-10 06:20:00,
2013-02-10 01:35:00,-4.3,-10.0,30.38,NW,306,0.0,-999.0,77,-99.99,,,0.00,weatherlink.com 1.10,2013-02-10 06:35:00,
2013-02-10 01:50:00,-6.1,-12.0,30.38,NW,306,0.0,-999.0,76,-99.99,,,0.00,weatherlink.com 1.10,2013-02-10 06:50:00,
2013-02-10 02:05:00,-5.4,-11.0,30.38,NW,306,0.0,-999.0,78,-99.99,,,0.00,weatherlink.com 1.10,2013-02-10 07:05:00,
2013-02-10 02:20:00,-6.1,-12.0,30.38,NW,306,0.0,-999.0,77,-99.99,,,0.00,weatherlink.com 1.10,2013-02-10 07:20:00,
2013-02-10 02:35:00,-6.1,-12.0,30.38,NW,306,0.0,-999.0,77,-99.99,,,0.00,weatherlink.com 1.10,2013-02-10 07:35:00,
2013-02-10 02:50:00,-5.4,-11.0,30.38,NW,306,0.0,-999.0,78,-99.99,,,0.00,weatherlink.com 1.10,2013-02-10 07:50:00,
2013-02-10 03:05:00,-4.3,-9.0,30.38,NW,306,0.0,-999.0,79,-99.99,,,0.00,weatherlink.com 1.10,2013-02-10 08:05:00,
2013-02-10 03:21:00,-4.8,-10.0,30.38,NW,306,0.0,-999.0,77,-99.99,,,0.00,weatherlink.com 1.10,2013-02-10 08:21:00,
2013-02-10 03:36:00,-5.6,-11.0,30.38,NW,306,0.0,-999.0,76,-99.99,,,0.00,weatherlink.com 1.10,2013-02-10 08:36:00,
2013-02-10 03:51:00,-5.2,-11.0,30.37,NW,306,0.0,-999.0,77,-99.99,,,0.00,weatherlink.com 1.10,2013-02-10 08:51:00,
2013-02-10 04:06:00,-5.2,-11.0,30.38,NW,306,0.0,-999.0,77,-99.99,,,0.00,weatherlink.com 1.10,2013-02-10 09:06:00,
2013-02-10 04:21:00,-5.9,-12.0,30.37,NW,306,0.0,-999.0,76,-99.99,,,0.00,weatherlink.com 1.10,2013-02-10 09:21:00,
2013-02-10 04:36:00,-6.5,-12.0,30.37,NW,306,0.0,-999.0,76,-99.99,,,0.00,weatherlink.com 1.10,2013-02-10 09:36:00,
2013-02-10 04:51:00,-6.8,-13.0,30.38,NW,306,0.0,-999.0,76,-99.99,,,0.00,weatherlink.com 1.10,2013-02-10 09:51:00,
2013-02-10 05:06:00,-5.6,-11.0,30.39,NW,306,0.0,-999.0,77,-99.99,,,0.00,weatherlink.com 1.10,2013-02-10 10:06:00,
2013-02-10 05:21:00,-6.8,-13.0,30.39,NW,306,0.0,-999.0,75,-99.99,,,0.00,weatherlink.com 1.10,2013-02-10 10:21:00,
2013-02-10 05:37:00,-6.8,-13.0,30.39,NW,306,0.0,-999.0,76,-99.99,,,0.00,weatherlink.com 1.10,2013-02-10 10:37:00,
2013-02-10 05:51:00,-7.0,-13.0,30.39,NW,306,0.0,-999.0,76,-99.99,,,0.00,weatherlink.com 1.10,2013-02-10 10:51:00,
2013-02-10 06:06:00,-6.5,-12.0,30.40,NW,306,0.0,-999.0,77,-99.99,,,0.00,weatherlink.com 1.10,2013-02-10 11:06:00,
2013-02-10 06:21:00,-5.6,-11.0,30.41,NW,306,0.0,-999.0,77,-99.99,,,0.00,weatherlink.com 1.10,2013-02-10 11:21:00,
2013-02-10 06:36:00,-5.2,-11.0,30.41,NW,306,0.0,-999.0,77,-99.99,,,0.00,weatherlink.com 1.10,2013-02-10 11:36:00,
2013-02-10 06:52:00,-3.5,-9.0,30.41,NW,306,0.0,-999.0,79,-99.99,,,0.00,weatherlink.com 1.10,2013-02-10 11:52:00,
2013-02-10 07:07:00,-0.4,-5.0,30.42,NW,306,0.0,-999.0,80,-99.99,,,0.00,weatherlink.com 1.10,2013-02-10 12:07:00,
2013-02-10 07:22:00,1.5,-3.0,30.41,NW,306,0.0,-999.0,81,-99.99,,,0.00,weatherlink.com 1.10,2013-02-10 12:22:00,
2013-02-10 07:37:00,2.8,-2.0,30.41,NW,306,0.0,-999.0,81,-99.99,,,0.00,weatherlink.com 1.10,2013-02-10 12:37:00,
2013-02-10 07:52:00,3.2,-1.0,30.42,NW,306,0.0,-999.0,81,-99.99,,,0.00,weatherlink.com 1.10,2013-02-10 12:52:00,
2013-02-10 08:07:00,2.4,-2.0,30.42,NW,306,0.0,-999.0,80,-99.99,,,0.00,weatherlink.com 1.10,2013-02-10 13:07:00,
2013-02-10 08:22:00,3.4,-1.0,30.42,NW,306,0.0,-999.0,81,-99.99,,,0.00,weatherlink.com 1.10,2013-02-10 13:22:00,
2013-02-10 08:37:00,3.2,-1.0,30.43,NW,306,1.0,-999.0,81,-99.99,,,0.00,weatherlink.com 1.10,2013-02-10 13:37:00,
2013-02-10 08:52:00,3.5,-1.0,30.43,NW,306,0.0,-999.0,81,-99.99,,,0.00,weatherlink.com 1.10,2013-02-10 13:52:00,
2013-02-10 09:07:00,3.9,0.0,30.44,NW,306,0.0,-999.0,82,-99.99,,,0.00,weatherlink.com 1.10,2013-02-10 14:07:00,
2013-02-10 09:22:00,4.8,1.0,30.45,NW,306,0.0,-999.0,82,-99.99,,,0.00,weatherlink.com 1.10,2013-02-10 14:22:00,
2013-02-10 09:37:00,7.2,3.0,30.45,NW,306,0.0,-999.0,84,-99.99,,,0.00,weatherlink.com 1.10,2013-02-10 14:37:00,
2013-02-10 09:53:00,9.5,6.0,30.45,NW,306,0.0,-999.0,84,-99.99,,,0.00,weatherlink.com 1.10,2013-02-10 14:53:00,
2013-02-10 10:08:00,11.4,8.0,30.45,NW,306,0.0,-999.0,84,-99.99,,,0.00,weatherlink.com 1.10,2013-02-10 15:08:00,
2013-02-10 10:23:00,13.3,9.0,30.45,NW,306,0.0,-999.0,84,-99.99,,,0.00,weatherlink.com 1.10,2013-02-10 15:23:00,
2013-02-10 10:38:00,13.3,9.0,30.45,NW,306,0.0,-999.0,84,-99.99,,,0.00,weatherlink.com 1.10,2013-02-10 15:38:00,
2013-02-10 10:53:00,13.1,9.0,30.44,NW,307,0.0,-999.0,84,-99.99,,,0.00,weatherlink.com 1.10,2013-02-10 15:53:00,
2013-02-10 11:08:00,13.1,9.0,30.43,NW,310,3.0,-999.0,84,-99.99,,,0.00,weatherlink.com 1.10,2013-02-10 16:08:00,
2013-02-10 11:23:00,14.0,10.0,30.43,NW,310,2.0,-999.0,84,-99.99,,,0.00,weatherlink.com 1.10,2013-02-10 16:23:00,
2013-02-10 11:38:00,14.8,10.0,30.42,NW,310,3.0,-999.0,82,-99.99,,,0.00,weatherlink.com 1.10,2013-02-10 16:38:00,
2013-02-10 11:53:00,15.6,11.0,30.41,NW,310,3.0,-999.0,81,-99.99,,,0.00,weatherlink.com 1.10,2013-02-10 16:53:00,
2013-02-10 12:08:00,15.7,11.0,30.38,NW,310,0.0,-999.0,81,-99.99,,,0.00,weatherlink.com 1.10,2013-02-10 17:08:00,
2013-02-10 12:23:00,17.0,12.0,30.37,NW,310,2.0,-999.0,79,-99.99,,,0.00,weatherlink.com 1.10,2013-02-10 17:23:00,
2013-02-10 12:38:00,18.0,12.0,30.35,NW,310,3.0,-999.0,77,-99.99,,,0.00,weatherlink.com 1.10,2013-02-10 17:38:00,
2013-02-10 12:53:00,18.6,12.0,30.34,NW,310,0.0,-999.0,75,-99.99,,,0.00,weatherlink.com 1.10,2013-02-10 17:53:00,
2013-02-10 13:09:00,19.1,12.0,30.34,NW,310,0.0,-999.0,74,-99.99,,,0.00,weatherlink.com 1.10,2013-02-10 18:09:00,
2013-02-10 13:23:00,20.0,12.0,30.33,NW,310,0.0,-999.0,71,-99.99,,,0.00,weatherlink.com 1.10,2013-02-10 18:23:00,
2013-02-10 13:39:00,21.1,13.0,30.33,NW,310,0.0,-999.0,71,-99.99,,,0.00,weatherlink.com 1.10,2013-02-10 18:39:00,
2013-02-10 13:54:00,22.1,12.0,30.32,NW,310,0.0,-999.0,65,-99.99,,,0.00,weatherlink.com 1.10,2013-02-10 18:54:00,
2013-02-10 14:09:00,23.0,12.0,30.32,NW,310,0.0,-999.0,63,-99.99,,,0.00,weatherlink.com 1.10,2013-02-10 19:09:00,
2013-02-10 14:24:00,24.5,12.0,30.33,NW,310,0.0,-999.0,60,-99.99,,,0.00,weatherlink.com 1.10,2013-02-10 19:24:00,
2013-02-10 14:39:00,26.4,9.0,30.31,SSE,159,5.0,-999.0,49,-99.99,,,0.00,weatherlink.com 1.10,2013-02-10 19:39:00,
2013-02-10 14:54:00,28.5,10.0,30.30,East,91,0.0,-999.0,46,-99.99,,,0.00,weatherlink.com 1.10,2013-02-10 19:54:00,
2013-02-10 15:09:00,30.3,7.0,30.28,SSE,165,0.0,-999.0,38,-99.99,,,0.00,weatherlink.com 1.10,2013-02-10 20:09:00,
2013-02-10 15:24:00,30.9,6.0,30.28,East,97,2.0,-999.0,35,-99.99,,,0.00,weatherlink.com 1.10,2013-02-10 20:24:00,
2013-02-10 15:39:00,31.0,6.0,30.27,East,93,0.0,-999.0,35,-99.99,,,0.00,weatherlink.com 1.10,2013-02-10 20:39:00,
2013-02-10 15:55:00,31.5,7.0,30.26,East,84,3.0,-999.0,36,-99.99,,,0.00,weatherlink.com 1.10,2013-02-10 20:55:00,
2013-02-10 16:09:00,31.3,3.0,30.26,East,86,1.0,-999.0,30,-99.99,,,0.00,weatherlink.com 1.10,2013-02-10 21:09:00,
2013-02-10 16:24:00,30.7,3.0,30.26,ESE,107,1.0,-999.0,30,-99.99,,,0.00,weatherlink.com 1.10,2013-02-10 21:24:00,
2013-02-10 16:39:00,30.1,3.0,30.26,ESE,105,0.0,-999.0,32,-99.99,,,0.00,weatherlink.com 1.10,2013-02-10 21:39:00,
2013-02-10 16:55:00,29.5,3.0,30.26,East,94,0.0,-999.0,32,-99.99,,,0.00,weatherlink.com 1.10,2013-02-10 21:55:00,
2013-02-10 17:10:00,29.0,3.0,30.26,ESE,123,0.0,-999.0,33,-99.99,,,0.00,weatherlink.com 1.10,2013-02-10 22:10:00,
2013-02-10 17:25:00,27.9,3.0,30.25,ESE,123,0.0,-999.0,35,-99.99,,,0.00,weatherlink.com 1.10,2013-02-10 22:25:00,
2013-02-10 17:40:00,27.5,4.0,30.25,ESE,123,0.0,-999.0,36,-99.99,,,0.00,weatherlink.com 1.10,2013-02-10 22:40:00,
2013-02-10 17:55:00,26.3,6.0,30.24,ESE,123,0.0,-999.0,42,-99.99,,,0.00,weatherlink.com 1.10,2013-02-10 22:55:00,
2013-02-10 18:10:00,25.7,6.0,30.24,ESE,123,0.0,-999.0,43,-99.99,,,0.00,weatherlink.com 1.10,2013-02-10 23:10:00,
2013-02-10 18:25:00,25.6,5.0,30.24,ESE,123,0.0,-999.0,41,-99.99,,,0.00,weatherlink.com 1.10,2013-02-10 23:25:00,
2013-02-10 18:40:00,25.7,0.0,30.23,ESE,123,0.0,-999.0,33,-99.99,,,0.00,weatherlink.com 1.10,2013-02-10 23:40:00,
2013-02-10 18:55:00,25.6,1.0,30.23,ESE,123,0.0,-999.0,34,-99.99,,,0.00,weatherlink.com 1.10,2013-02-10 23:55:00,
2013-02-10 19:10:00,24.7,2.0,30.23,ESE,123,0.0,-999.0,37,-99.99,,,0.00,weatherlink.com 1.10,2013-02-11 00:10:00,
2013-02-10 19:25:00,25.1,3.0,30.22,ESE,123,0.0,-999.0,38,-99.99,,,0.00,weatherlink.com 1.10,2013-02-11 00:25:00,
2013-02-10 19:40:00,25.0,4.0,30.21,ESE,107,0.0,-999.0,40,-99.99,,,0.00,weatherlink.com 1.10,2013-02-11 00:40:00,
2013-02-10 19:55:00,24.7,3.0,30.21,East,92,0.0,-999.0,39,-99.99,,,0.00,weatherlink.com 1.10,2013-02-11 00:55:00,
2013-02-10 20:10:00,24.5,2.0,30.21,East,92,0.0,-999.0,38,-99.99,,,0.00,weatherlink.com 1.10,2013-02-11 01:10:00,
2013-02-10 20:26:00,24.2,4.0,30.21,East,90,3.0,-999.0,41,-99.99,,,0.00,weatherlink.com 1.10,2013-02-11 01:26:00,
2013-02-10 20:41:00,24.1,4.0,30.20,East,93,4.0,-999.0,42,-99.99,,,0.00,weatherlink.com 1.10,2013-02-11 01:41:00,
2013-02-10 20:56:00,23.9,4.0,30.20,East,96,0.0,-999.0,42,-99.99,,,0.00,weatherlink.com 1.10,2013-02-11 01:56:00,
2013-02-10 21:11:00,23.2,4.0,30.19,East,96,0.0,-999.0,43,-99.99,,,0.00,weatherlink.com 1.10,2013-02-11 02:11:00,
2013-02-10 21:26:00,22.9,5.0,30.18,East,97,0.0,-999.0,46,-99.99,,,0.00,weatherlink.com 1.10,2013-02-11 02:26:00,
2013-02-10 21:41:00,22.7,4.0,30.18,East,94,0.0,-999.0,45,-99.99,,,0.00,weatherlink.com 1.10,2013-02-11 02:41:00,
2013-02-10 21:56:00,23.0,4.0,30.16,East,94,0.0,-999.0,45,-99.99,,,0.00,weatherlink.com 1.10,2013-02-11 02:56:00,
2013-02-10 22:11:00,23.3,4.0,30.15,ESE,104,0.0,-999.0,44,-99.99,,,0.00,weatherlink.com 1.10,2013-02-11 03:11:00,
2013-02-10 22:26:00,23.2,6.0,30.16,ESE,111,0.0,-999.0,47,-99.99,,,0.00,weatherlink.com 1.10,2013-02-11 03:26:00,
2013-02-10 22:41:00,23.5,6.0,30.16,ESE,111,0.0,-999.0,47,-99.99,,,0.00,weatherlink.com 1.10,2013-02-11 03:41:00,
2013-02-10 22:56:00,23.9,6.0,30.15,ESE,111,0.0,-999.0,46,-99.99,,,0.00,weatherlink.com 1.10,2013-02-11 03:56:00,
2013-02-10 23:11:00,24.1,8.0,30.14,ESE,111,0.0,-999.0,50,-99.99,,,0.00,weatherlink.com 1.10,2013-02-11 04:11:00,
2013-02-10 23:26:00,24.4,8.0,30.13,ESE,111,0.0,-999.0,50,-99.99,,,0.00,weatherlink.com 1.10,2013-02-11 04:26:00,
2013-02-10 23:41:00,25.0,8.0,30.11,ESE,111,0.0,-999.0,48,-99.99,,,0.00,weatherlink.com 1.10,2013-02-11 04:41:00,
2013-02-10 23:57:00,25.8,8.0,30.10,SSE,157,0.0,-999.0,47,-99.99,,,0.00,weatherlink.com 1.10,2013-02-11 04:57:00,